Regional Weather Roundup
Issued by NWS

Home | Current Version | Previous Version | Graphics & Text | Print | Product List | Glossary On
Versions: 1 2 3 4 5 6 7 8 9 10 11 12 13 14 15 16 17 18 19 20 21 22 23 24 25 26 27 28 29 30 31 32 33 34 35 36 37 38 39 40 41 42 43 44 45 46 47 48 49 50
000
ASUS43 KIND 280909
RWRIN

WEATHER ROUNDUP FOR INDIANA
NATIONAL WEATHER SERVICE INDIANAPOLIS IN
500 AM EDT TUE APR 28 2015

NOTE: "FAIR" INDICATES FEW OR NO CLOUDS BELOW 12,000 FEET WITH NO
SIGNIFICANT WEATHER AND/OR OBSTRUCTIONS TO VISIBILITY.

* - STATION DOES NOT REPORT WEATHER SUCH AS PRECIPITATION OR FOG.

+ - STATION NOT QUALITY CONTROLLED BY THE NATIONAL WEATHER SERVICE.
    USE DATA WITH CAUTION...ESPECIALLY DEWPOINT AND RELATIVE
    HUMIDITY OBSERVATIONS.

INZ001>003-010>013-019-020-281000-
NORTHWEST INDIANA

CITY           SKY/WX    TMP DP  RH WIND       PRES   REMARKS
GARY /AIRPORT/   N/A     35  32  90 W3        30.14S FOG
KNOX *+        CLEAR     32  28  86 CALM      30.12S
LA PORTE +     PTCLDY    37  37 100 NW3       30.13S
MICHIGAN CITY+ CLEAR     32  32 100 CALM      30.14R FOG
MONTICELLO +   CLEAR     33  32  96 NW3       30.12R
VALPARAISO     CLEAR     35  34  96 CALM      30.13S

$$

LMZ046-743>745-281000-
SOUTHERN LAKE MICHIGAN

STATION/POSITION TIME  TEMP    WIND        PRES    WAVE
                       AIR SEA DIR/SP/G            HT
                 (UTC) (F)     (DEG/KT/KT) (MB)    (FT)
BURNS HARBOR     0900   42     340/  3/  5 1021.0R
MICHIGAN CITY    0900   40     310/  4/  5   N/A
5NW MICH CITY    0900   40 46  350/  4/  6   N/A     2

$$

INZ004-005-014>016-021>024-281000-
NORTH CENTRAL INDIANA

CITY           SKY/WX    TMP DP  RH WIND       PRES   REMARKS
GOSHEN         CLEAR     32  30  92 CALM      30.11R FOG
LOGANSPORT +   CLEAR     34  32  93 CALM      30.12R
PERU/GRISSOM   CLEAR     37  33  86 W2        30.10R
ROCHESTER +    CLEAR     36  36 100 CALM      30.12R
SOUTH BEND     CLEAR     37  34  89 NW3       30.13R
WARSAW +       CLEAR     32  32 100 CALM      30.11R FOG

$$

INZ006>009-017-018-025>027-281000-
NORTHEAST INDIANA

CITY           SKY/WX    TMP DP  RH WIND       PRES   REMARKS
ANGOLA *+      CLEAR     32  30  93 CALM      30.10S
AUBURN +       CLEAR     34  32  93 CALM      30.11R
FORT WAYNE     CLEAR     32  30  92 CALM      30.11R
HUNTINGTON +   CLEAR     34  33  94 CALM      30.10S

$$

INZ028-029-035-036-043>045-051>053-281000-
WEST CENTRAL INDIANA

CITY           SKY/WX    TMP DP  RH WIND       PRES   REMARKS
CRAWFORDSVL +  CLEAR     33  29  85 CALM      30.12R
GREENCASTLE +  CLEAR     39  32  75 CALM      30.11R
LAFAYETTE      CLEAR     37  34  89 CALM      30.13R
TERRE HAUTE    CLEAR     39  34  82 N3        30.11R

$$

INZ030>032-037>040-046>048-054>057-064-065-281000-
CENTRAL INDIANA

CITY           SKY/WX    TMP DP  RH WIND       PRES   REMARKS
CP ATTERBURY + CLEAR     37  34  87 CALM      30.10S
FISHERS *+     CLEAR     34  34 100 CALM      30.11R
FRANKFORT +    CLEAR     35  35 100 CALM      30.13R
GREENWOOD *+   CLEAR     37  32  81 CALM      30.10R
INDIANAPOLIS   CLEAR     42  34  73 VRB3      30.09R
-EAGLE CREEK   CLEAR     39  35  86 CALM      30.10R
KOKOMO *+      CLEAR     34  30  86 SE3       30.11R
MARION +       CLEAR     35  33  91 CALM      30.11R
MT COMFORT *+  CLEAR     36 N/A N/A CALM      30.11R
SHELBYVILLE    CLEAR     39  34  82 NE3       30.10R
ZIONSVILLE +   CLEAR     35  32  87 CALM      30.11R

$$

INZ033-034-041-042-049-050-058-059-281000-
EAST CENTRAL INDIANA

CITY           SKY/WX    TMP DP  RH WIND       PRES   REMARKS
MUNCIE         CLEAR     36  33  89 CALM      30.10R

$$

INZ060-061-067>069-081>083-085>088-281000-
SOUTHWEST INDIANA

CITY           SKY/WX    TMP DP  RH WIND       PRES   REMARKS
EVANSVILLE     CLEAR     45  38  76 N8        30.06F
HUNTINGBURG *+ CLEAR     41  36  81 NE7       30.07S
WASHINGTON +   CLEAR     38  35  87 CALM      30.08S

$$

INZ062-063-066-070>080-084-089>092-281000-
SOUTH CENTRAL AND SOUTHEAST INDIANA

CITY           SKY/WX    TMP DP  RH WIND       PRES   REMARKS
BEDFORD +      CLEAR     39  36  87 NE3       30.09R
BLOOMINGTON    CLEAR     37  35  92 CALM      30.09R
MADISON *+     CLEAR     39  34  81 NE3       30.10R
NORTH VERNON + CLEAR     39  39 100 NE3       30.09S
SEYMOUR +      CLEAR     41  36  81 NE5       30.09R

$$




USA.gov is the U.S. government's official web portal to all federal, state and local government web resources and services.